Time,TemperatureF,DewpointF,PressureIn,WindDirection,WindDirectionDegrees,WindSpeedMPH,WindSpeedGustMPH,Humidity,HourlyPrecipIn,Conditions,Clouds,dailyrainin,SoftwareType,DateUTC
2013-12-06 00:01:00,42.9,42.0,29.98,SW,225,1.0,5.0,96,0.00,,,0.00,Rainwise IP-100,2013-12-06 05:01:00,
2013-12-06 00:03:00,42.9,42.0,29.97,SW,225,0.0,2.0,96,0.00,,,0.00,Rainwise IP-100,2013-12-06 05:03:00,
2013-12-06 00:04:00,42.8,42.0,29.97,WSW,247,2.0,2.0,96,0.00,,,0.00,Rainwise IP-100,2013-12-06 05:04:00,
2013-12-06 00:06:00,42.7,42.0,29.97,SW,225,1.0,2.0,96,0.00,,,0.00,Rainwise IP-100,2013-12-06 05:06:00,
2013-12-06 00:07:00,42.6,42.0,29.97,WSW,247,1.0,2.0,96,0.00,,,0.00,Rainwise IP-100,2013-12-06 05:07:00,
2013-12-06 00:12:00,42.5,42.0,29.98,South,180,0.0,3.0,96,0.00,,,0.00,Rainwise IP-100,2013-12-06 05:12:00,
2013-12-06 00:17:00,42.3,41.0,29.99,West,270,1.0,4.0,96,0.00,,,0.00,Rainwise IP-100,2013-12-06 05:17:00,
2013-12-06 00:22:00,42.1,41.0,29.99,SW,225,4.0,4.0,96,0.00,,,0.00,Rainwise IP-100,2013-12-06 05:22:00,
2013-12-06 00:27:00,41.9,41.0,29.98,SW,225,2.0,6.0,96,0.00,,,0.00,Rainwise IP-100,2013-12-06 05:27:00,
2013-12-06 00:32:00,41.9,41.0,29.99,SSW,202,2.0,6.0,96,0.00,,,0.00,Rainwise IP-100,2013-12-06 05:32:00,
2013-12-06 00:37:00,41.9,41.0,29.99,South,180,4.0,6.0,96,0.00,,,0.00,Rainwise IP-100,2013-12-06 05:37:00,
2013-12-06 00:42:00,41.9,41.0,29.98,SW,225,4.0,7.0,96,0.00,,,0.00,Rainwise IP-100,2013-12-06 05:42:00,
2013-12-06 00:47:00,41.9,41.0,29.98,SSE,157,3.0,6.0,96,0.00,,,0.00,Rainwise IP-100,2013-12-06 05:47:00,
2013-12-06 00:52:00,41.9,41.0,29.98,South,180,2.0,6.0,96,0.00,,,0.00,Rainwise IP-100,2013-12-06 05:52:00,
2013-12-06 00:57:00,41.9,41.0,29.99,South,180,3.0,6.0,96,0.00,,,0.00,Rainwise IP-100,2013-12-06 05:57:00,
2013-12-06 01:02:00,41.8,41.0,29.98,SSE,157,2.0,7.0,96,0.00,,,0.00,Rainwise IP-100,2013-12-06 06:02:00,
2013-12-06 01:08:00,41.8,41.0,29.98,South,180,1.0,4.0,96,0.00,,,0.00,Rainwise IP-100,2013-12-06 06:08:00,
2013-12-06 01:13:00,41.8,41.0,29.99,SSW,202,1.0,6.0,96,0.00,,,0.00,Rainwise IP-100,2013-12-06 06:13:00,
2013-12-06 01:18:00,41.6,41.0,29.98,North,360,2.0,2.0,96,0.00,,,0.00,Rainwise IP-100,2013-12-06 06:18:00,
2013-12-06 01:23:00,41.2,40.0,29.99,NW,315,2.0,4.0,96,0.00,,,0.00,Rainwise IP-100,2013-12-06 06:23:00,
2013-12-06 01:28:00,40.5,40.0,29.99,NW,315,1.0,4.0,96,0.00,,,0.00,Rainwise IP-100,2013-12-06 06:28:00,
2013-12-06 01:33:00,40.1,39.0,29.99,NW,315,0.0,6.0,96,0.00,,,0.00,Rainwise IP-100,2013-12-06 06:33:00,
2013-12-06 01:38:00,39.7,39.0,29.99,NW,315,2.0,4.0,96,0.00,,,0.00,Rainwise IP-100,2013-12-06 06:38:00,
2013-12-06 01:43:00,39.2,38.0,30.00,WNW,292,4.0,6.0,96,0.00,,,0.00,Rainwise IP-100,2013-12-06 06:43:00,
2013-12-06 01:48:00,38.9,38.0,30.01,NNW,337,3.0,7.0,96,0.00,,,0.00,Rainwise IP-100,2013-12-06 06:48:00,
2013-12-06 01:53:00,38.5,38.0,30.01,North,360,2.0,7.0,96,0.00,,,0.00,Rainwise IP-100,2013-12-06 06:53:00,
2013-12-06 01:58:00,38.2,37.0,30.00,North,360,0.0,5.0,96,0.00,,,0.00,Rainwise IP-100,2013-12-06 06:58:00,
2013-12-06 02:03:00,37.9,37.0,30.00,NE,45,2.0,7.0,95,0.00,,,0.00,Rainwise IP-100,2013-12-06 07:03:00,
2013-12-06 02:17:00,37.5,37.0,30.02,SW,225,2.0,6.0,95,0.06,,,0.01,Rainwise IP-100,2013-12-06 07:17:00,
2013-12-06 02:22:00,37.3,36.0,30.02,NW,315,2.0,7.0,95,0.06,,,0.01,Rainwise IP-100,2013-12-06 07:22:00,
2013-12-06 02:27:00,36.9,36.0,30.02,SSW,202,2.0,5.0,95,0.00,,,0.01,Rainwise IP-100,2013-12-06 07:27:00,
2013-12-06 02:32:00,36.7,36.0,30.02,West,270,0.0,6.0,95,0.00,,,0.01,Rainwise IP-100,2013-12-06 07:32:00,
2013-12-06 02:37:00,36.5,36.0,30.02,SSE,157,1.0,6.0,95,0.06,,,0.02,Rainwise IP-100,2013-12-06 07:37:00,
2013-12-06 02:42:00,36.2,35.0,30.03,South,180,1.0,7.0,95,0.06,,,0.02,Rainwise IP-100,2013-12-06 07:42:00,
2013-12-06 02:47:00,35.8,35.0,30.03,East,90,1.0,11.0,95,0.00,,,0.02,Rainwise IP-100,2013-12-06 07:47:00,
2013-12-06 02:52:00,35.4,33.0,30.01,South,180,1.0,5.0,95,0.00,,,0.02,Rainwise IP-100,2013-12-06 07:52:00,
2013-12-06 02:57:00,34.9,33.0,30.01,South,180,7.0,7.0,95,0.06,,,0.03,Rainwise IP-100,2013-12-06 07:57:00,
2013-12-06 03:02:00,34.6,33.0,30.01,NW,315,3.0,11.0,95,0.12,,,0.04,Rainwise IP-100,2013-12-06 08:02:00,
2013-12-06 03:08:00,34.3,33.0,30.01,SW,225,4.0,4.0,95,0.06,,,0.04,Rainwise IP-100,2013-12-06 08:08:00,
2013-12-06 03:13:00,34.1,33.0,30.01,North,360,2.0,5.0,95,0.06,,,0.05,Rainwise IP-100,2013-12-06 08:13:00,
2013-12-06 03:18:00,33.9,33.0,30.01,North,360,0.0,2.0,95,0.12,,,0.06,Rainwise IP-100,2013-12-06 08:18:00,
2013-12-06 03:23:00,33.7,33.0,30.03,SE,135,1.0,2.0,95,0.06,,,0.06,Rainwise IP-100,2013-12-06 08:23:00,
2013-12-06 03:28:00,33.6,33.0,30.03,South,180,0.0,5.0,95,0.00,,,0.06,Rainwise IP-100,2013-12-06 08:28:00,
2013-12-06 03:33:00,33.4,32.0,30.02,North,360,2.0,3.0,95,0.00,,,0.07,Rainwise IP-100,2013-12-06 08:33:00,
2013-12-06 03:38:00,33.1,32.0,30.01,West,270,1.0,6.0,95,0.06,,,0.07,Rainwise IP-100,2013-12-06 08:38:00,
2013-12-06 03:43:00,32.9,32.0,30.01,WNW,292,6.0,6.0,95,0.06,,,0.07,Rainwise IP-100,2013-12-06 08:43:00,
2013-12-06 03:48:00,32.8,32.0,30.01,SE,135,1.0,7.0,95,0.00,,,0.07,Rainwise IP-100,2013-12-06 08:48:00,
2013-12-06 03:53:00,32.5,32.0,30.01,SSW,202,1.0,6.0,95,0.00,,,0.07,Rainwise IP-100,2013-12-06 08:53:00,
2013-12-06 03:58:00,32.4,31.0,30.01,SSE,157,2.0,7.0,95,0.00,,,0.07,Rainwise IP-100,2013-12-06 08:58:00,
2013-12-06 04:03:00,32.3,31.0,30.00,SW,225,0.0,3.0,95,0.00,,,0.07,Rainwise IP-100,2013-12-06 09:03:00,
2013-12-06 04:09:00,32.3,31.0,30.00,WSW,247,1.0,6.0,95,0.00,,,0.07,Rainwise IP-100,2013-12-06 09:09:00,
2013-12-06 04:14:00,32.2,31.0,30.00,NW,315,1.0,3.0,95,0.00,,,0.07,Rainwise IP-100,2013-12-06 09:14:00,
2013-12-06 04:19:00,32.2,31.0,30.00,SW,225,1.0,5.0,95,0.00,,,0.07,Rainwise IP-100,2013-12-06 09:19:00,
2013-12-06 04:24:00,32.2,31.0,30.01,NE,45,2.0,5.0,95,0.00,,,0.07,Rainwise IP-100,2013-12-06 09:24:00,
2013-12-06 04:29:00,32.2,31.0,30.02,North,360,2.0,6.0,95,0.00,,,0.07,Rainwise IP-100,2013-12-06 09:29:00,
2013-12-06 04:34:00,32.2,31.0,30.03,SSE,157,1.0,8.0,95,0.00,,,0.07,Rainwise IP-100,2013-12-06 09:34:00,
2013-12-06 04:39:00,32.2,31.0,30.03,ESE,112,2.0,3.0,95,0.00,,,0.07,Rainwise IP-100,2013-12-06 09:39:00,
2013-12-06 04:44:00,32.2,31.0,30.03,SW,225,2.0,9.0,95,0.00,,,0.07,Rainwise IP-100,2013-12-06 09:44:00,
2013-12-06 04:49:00,32.1,31.0,30.03,East,90,2.0,7.0,95,0.00,,,0.07,Rainwise IP-100,2013-12-06 09:49:00,
2013-12-06 04:54:00,32.1,31.0,30.03,SW,225,4.0,6.0,95,0.00,,,0.07,Rainwise IP-100,2013-12-06 09:54:00,
2013-12-06 04:59:00,31.9,31.0,30.02,West,270,4.0,5.0,95,0.00,,,0.07,Rainwise IP-100,2013-12-06 09:59:00,
2013-12-06 05:04:00,31.8,31.0,30.03,SSE,157,2.0,10.0,95,0.00,,,0.07,Rainwise IP-100,2013-12-06 10:04:00,
2013-12-06 05:10:00,31.6,31.0,30.03,South,180,1.0,4.0,95,0.00,,,0.07,Rainwise IP-100,2013-12-06 10:10:00,
2013-12-06 05:15:00,31.5,31.0,30.03,SE,135,2.0,5.0,95,0.00,,,0.07,Rainwise IP-100,2013-12-06 10:15:00,
2013-12-06 05:20:00,31.5,31.0,30.03,SE,135,2.0,2.0,95,0.00,,,0.07,Rainwise IP-100,2013-12-06 10:20:00,
2013-12-06 05:25:00,31.3,29.0,30.03,SE,135,1.0,3.0,95,0.00,,,0.07,Rainwise IP-100,2013-12-06 10:25:00,
2013-12-06 05:30:00,31.2,29.0,30.01,SE,135,1.0,2.0,95,0.00,,,0.07,Rainwise IP-100,2013-12-06 10:30:00,
2013-12-06 05:35:00,31.1,29.0,30.01,SE,135,2.0,2.0,95,0.00,,,0.07,Rainwise IP-100,2013-12-06 10:35:00,
2013-12-06 05:40:00,30.9,29.0,30.01,SE,135,1.0,4.0,94,0.00,,,0.07,Rainwise IP-100,2013-12-06 10:40:00,
2013-12-06 05:45:00,30.9,29.0,30.01,SE,135,0.0,2.0,94,0.00,,,0.07,Rainwise IP-100,2013-12-06 10:45:00,
2013-12-06 05:50:00,30.8,29.0,30.01,SE,135,2.0,4.0,94,0.00,,,0.07,Rainwise IP-100,2013-12-06 10:50:00,
2013-12-06 05:55:00,30.8,29.0,30.01,SE,135,2.0,3.0,94,0.00,,,0.07,Rainwise IP-100,2013-12-06 10:55:00,
2013-12-06 06:00:00,30.8,29.0,30.02,SE,135,1.0,2.0,94,0.00,,,0.07,Rainwise IP-100,2013-12-06 11:00:00,
2013-12-06 06:05:00,30.8,29.0,30.01,SE,135,1.0,3.0,94,0.00,,,0.07,Rainwise IP-100,2013-12-06 11:05:00,
2013-12-06 06:11:00,30.8,29.0,30.00,SE,135,2.0,2.0,94,0.00,,,0.07,Rainwise IP-100,2013-12-06 11:11:00,
2013-12-06 06:16:00,30.8,29.0,30.00,SE,135,1.0,2.0,94,0.00,,,0.07,Rainwise IP-100,2013-12-06 11:16:00,
2013-12-06 06:21:00,30.8,29.0,30.00,SE,135,0.0,2.0,94,0.00,,,0.07,Rainwise IP-100,2013-12-06 11:21:00,
2013-12-06 06:26:00,30.9,29.0,30.01,SE,135,2.0,2.0,94,0.00,,,0.07,Rainwise IP-100,2013-12-06 11:26:00,
2013-12-06 06:31:00,30.9,29.0,30.02,SE,135,0.0,2.0,94,0.00,,,0.07,Rainwise IP-100,2013-12-06 11:31:00,
2013-12-06 06:36:00,30.9,29.0,30.01,SE,135,0.0,1.0,94,0.00,,,0.07,Rainwise IP-100,2013-12-06 11:36:00,
2013-12-06 06:41:00,30.9,29.0,30.01,SE,135,1.0,2.0,94,0.00,,,0.07,Rainwise IP-100,2013-12-06 11:41:00,
2013-12-06 06:46:00,30.9,29.0,30.00,SE,135,0.0,2.0,94,0.00,,,0.07,Rainwise IP-100,2013-12-06 11:46:00,
2013-12-06 06:51:00,30.9,29.0,30.02,SE,135,0.0,0.0,94,0.00,,,0.07,Rainwise IP-100,2013-12-06 11:51:00,
2013-12-06 06:56:00,30.9,29.0,30.04,SE,135,0.0,1.0,94,0.00,,,0.07,Rainwise IP-100,2013-12-06 11:56:00,
2013-12-06 07:01:00,30.9,29.0,30.03,SE,135,0.0,0.0,94,0.00,,,0.07,Rainwise IP-100,2013-12-06 12:01:00,
2013-12-06 07:06:00,30.9,29.0,30.04,SE,135,1.0,2.0,94,0.00,,,0.07,Rainwise IP-100,2013-12-06 12:06:00,
2013-12-06 07:12:00,30.9,29.0,30.03,SE,135,0.0,2.0,94,0.00,,,0.07,Rainwise IP-100,2013-12-06 12:12:00,
2013-12-06 07:17:00,30.8,29.0,30.05,SE,135,2.0,2.0,94,0.00,,,0.07,Rainwise IP-100,2013-12-06 12:17:00,
2013-12-06 07:22:00,30.8,29.0,30.04,SE,135,0.0,2.0,94,0.00,,,0.07,Rainwise IP-100,2013-12-06 12:22:00,
2013-12-06 07:27:00,30.8,29.0,30.03,SE,135,2.0,2.0,94,0.00,,,0.07,Rainwise IP-100,2013-12-06 12:27:00,
2013-12-06 07:32:00,30.7,29.0,30.05,SE,135,0.0,2.0,94,0.00,,,0.07,Rainwise IP-100,2013-12-06 12:32:00,
2013-12-06 07:37:00,30.7,29.0,30.05,SE,135,2.0,2.0,94,0.00,,,0.07,Rainwise IP-100,2013-12-06 12:37:00,
2013-12-06 07:42:00,30.8,29.0,30.05,SE,135,0.0,2.0,94,0.00,,,0.07,Rainwise IP-100,2013-12-06 12:42:00,
2013-12-06 07:47:00,30.8,29.0,30.05,SE,135,2.0,2.0,94,0.00,,,0.07,Rainwise IP-100,2013-12-06 12:47:00,
2013-12-06 07:52:00,30.9,29.0,30.05,SE,135,2.0,2.0,94,0.00,,,0.07,Rainwise IP-100,2013-12-06 12:52:00,
2013-12-06 07:57:00,30.9,29.0,30.05,SE,135,0.0,3.0,94,0.00,,,0.07,Rainwise IP-100,2013-12-06 12:57:00,
2013-12-06 08:02:00,30.8,29.0,30.05,SE,135,0.0,3.0,94,0.00,,,0.07,Rainwise IP-100,2013-12-06 13:02:00,
2013-12-06 08:07:00,30.9,29.0,30.04,SE,135,0.0,4.0,94,0.00,,,0.07,Rainwise IP-100,2013-12-06 13:07:00,
2013-12-06 08:13:00,30.9,29.0,30.06,SE,135,1.0,2.0,94,0.00,,,0.07,Rainwise IP-100,2013-12-06 13:13:00,
2013-12-06 08:18:00,30.9,29.0,30.05,SE,135,1.0,3.0,94,0.00,,,0.07,Rainwise IP-100,2013-12-06 13:18:00,
2013-12-06 08:23:00,30.9,29.0,30.05,SE,135,1.0,2.0,94,0.00,,,0.07,Rainwise IP-100,2013-12-06 13:23:00,
2013-12-06 08:28:00,30.9,29.0,30.05,SE,135,1.0,2.0,94,0.00,,,0.07,Rainwise IP-100,2013-12-06 13:28:00,
2013-12-06 08:33:00,30.9,29.0,30.06,SE,135,0.0,2.0,94,0.00,,,0.07,Rainwise IP-100,2013-12-06 13:33:00,
2013-12-06 08:38:00,31.0,29.0,30.06,SE,135,1.0,2.0,95,0.00,,,0.07,Rainwise IP-100,2013-12-06 13:38:00,
2013-12-06 08:43:00,31.1,29.0,30.06,SE,135,1.0,3.0,95,0.00,,,0.07,Rainwise IP-100,2013-12-06 13:43:00,
2013-12-06 08:48:00,31.2,29.0,30.07,SE,135,2.0,2.0,95,0.00,,,0.07,Rainwise IP-100,2013-12-06 13:48:00,
2013-12-06 08:53:00,31.3,29.0,30.07,SE,135,1.0,2.0,95,0.00,,,0.07,Rainwise IP-100,2013-12-06 13:53:00,
2013-12-06 08:58:00,31.3,29.0,30.07,SE,135,1.0,2.0,95,0.00,,,0.07,Rainwise IP-100,2013-12-06 13:58:00,
2013-12-06 09:03:00,31.3,29.0,30.07,SE,135,0.0,2.0,95,0.00,,,0.07,Rainwise IP-100,2013-12-06 14:03:00,
2013-12-06 09:08:00,31.4,29.0,30.06,SE,135,1.0,3.0,95,0.00,,,0.07,Rainwise IP-100,2013-12-06 14:08:00,
2013-12-06 09:14:00,31.2,29.0,30.05,SE,135,0.0,3.0,95,0.00,,,0.07,Rainwise IP-100,2013-12-06 14:14:00,
2013-12-06 09:19:00,31.2,29.0,30.05,SE,135,1.0,2.0,95,0.00,,,0.07,Rainwise IP-100,2013-12-06 14:19:00,
2013-12-06 09:24:00,31.3,29.0,30.05,SE,135,0.0,2.0,95,0.00,,,0.07,Rainwise IP-100,2013-12-06 14:24:00,
2013-12-06 09:29:00,31.3,29.0,30.05,SE,135,2.0,3.0,95,0.00,,,0.07,Rainwise IP-100,2013-12-06 14:29:00,
2013-12-06 09:34:00,31.3,29.0,30.06,SE,135,2.0,4.0,95,0.00,,,0.07,Rainwise IP-100,2013-12-06 14:34:00,
2013-12-06 09:39:00,31.3,29.0,30.06,SE,135,0.0,2.0,95,0.00,,,0.07,Rainwise IP-100,2013-12-06 14:39:00,
2013-12-06 09:44:00,31.3,29.0,30.07,SE,135,1.0,2.0,95,0.00,,,0.07,Rainwise IP-100,2013-12-06 14:44:00,
2013-12-06 09:49:00,31.3,29.0,30.07,SE,135,2.0,4.0,95,0.00,,,0.07,Rainwise IP-100,2013-12-06 14:49:00,
2013-12-06 09:54:00,31.4,29.0,30.07,SE,135,0.0,4.0,95,0.00,,,0.07,Rainwise IP-100,2013-12-06 14:54:00,
2013-12-06 09:59:00,31.4,29.0,30.08,SE,135,0.0,3.0,95,0.00,,,0.07,Rainwise IP-100,2013-12-06 14:59:00,
2013-12-06 10:04:00,31.5,31.0,30.08,SE,135,2.0,3.0,95,0.00,,,0.07,Rainwise IP-100,2013-12-06 15:04:00,
2013-12-06 10:09:00,31.5,31.0,30.07,SE,135,0.0,4.0,95,0.00,,,0.07,Rainwise IP-100,2013-12-06 15:09:00,
2013-12-06 10:15:00,31.7,31.0,30.07,SE,135,0.0,2.0,95,0.00,,,0.07,Rainwise IP-100,2013-12-06 15:15:00,
2013-12-06 10:20:00,31.8,31.0,30.07,SE,135,0.0,3.0,95,0.00,,,0.07,Rainwise IP-100,2013-12-06 15:20:00,
2013-12-06 10:25:00,31.9,31.0,30.07,SE,135,2.0,6.0,95,0.00,,,0.07,Rainwise IP-100,2013-12-06 15:25:00,
2013-12-06 10:30:00,31.9,31.0,30.07,South,180,1.0,6.0,95,0.00,,,0.07,Rainwise IP-100,2013-12-06 15:30:00,
2013-12-06 10:35:00,31.9,31.0,30.07,SSW,202,1.0,5.0,95,0.00,,,0.07,Rainwise IP-100,2013-12-06 15:35:00,
2013-12-06 10:40:00,32.0,31.0,30.06,East,90,1.0,4.0,95,0.00,,,0.07,Rainwise IP-100,2013-12-06 15:40:00,
2013-12-06 10:45:00,32.1,31.0,30.07,WNW,292,2.0,6.0,94,0.00,,,0.07,Rainwise IP-100,2013-12-06 15:45:00,
2013-12-06 10:50:00,32.1,31.0,30.07,SSW,202,2.0,4.0,95,0.00,,,0.07,Rainwise IP-100,2013-12-06 15:50:00,
2013-12-06 10:55:00,32.0,31.0,30.07,WNW,292,2.0,6.0,92,0.00,,,0.07,Rainwise IP-100,2013-12-06 15:55:00,
2013-12-06 11:00:00,31.9,29.0,30.07,SE,135,3.0,9.0,90,0.00,,,0.07,Rainwise IP-100,2013-12-06 16:00:00,
2013-12-06 11:05:00,31.9,29.0,30.07,South,180,1.0,9.0,90,0.00,,,0.07,Rainwise IP-100,2013-12-06 16:05:00,
2013-12-06 11:10:00,31.9,29.0,30.07,SW,225,1.0,8.0,90,0.00,,,0.07,Rainwise IP-100,2013-12-06 16:10:00,
2013-12-06 11:16:00,31.9,31.0,30.07,SW,225,0.0,6.0,92,0.00,,,0.07,Rainwise IP-100,2013-12-06 16:16:00,
2013-12-06 11:21:00,31.9,31.0,30.08,SW,225,4.0,4.0,92,0.00,,,0.07,Rainwise IP-100,2013-12-06 16:21:00,
2013-12-06 11:26:00,31.8,31.0,30.08,WSW,247,1.0,9.0,92,0.00,,,0.07,Rainwise IP-100,2013-12-06 16:26:00,
2013-12-06 11:31:00,31.7,29.0,30.08,WSW,247,1.0,9.0,90,0.00,,,0.07,Rainwise IP-100,2013-12-06 16:31:00,
2013-12-06 11:36:00,31.5,29.0,30.08,WNW,292,1.0,14.0,89,0.00,,,0.07,Rainwise IP-100,2013-12-06 16:36:00,
2013-12-06 11:41:00,31.3,28.0,30.08,WNW,292,0.0,9.0,90,0.00,,,0.07,Rainwise IP-100,2013-12-06 16:41:00,
2013-12-06 11:46:00,31.3,28.0,30.08,WNW,292,0.0,8.0,90,0.00,,,0.07,Rainwise IP-100,2013-12-06 16:46:00,
2013-12-06 11:51:00,31.4,28.0,30.09,WNW,292,1.0,5.0,90,0.00,,,0.07,Rainwise IP-100,2013-12-06 16:51:00,
2013-12-06 11:56:00,31.4,28.0,30.09,WNW,292,2.0,4.0,90,0.00,,,0.07,Rainwise IP-100,2013-12-06 16:56:00,
2013-12-06 12:01:00,31.4,28.0,30.08,WNW,292,2.0,5.0,89,0.00,,,0.07,Rainwise IP-100,2013-12-06 17:01:00,
2013-12-06 12:06:00,31.4,28.0,30.09,WNW,292,1.0,7.0,89,0.00,,,0.07,Rainwise IP-100,2013-12-06 17:06:00,
2013-12-06 12:11:00,31.5,29.0,30.09,West,270,1.0,4.0,89,0.00,,,0.07,Rainwise IP-100,2013-12-06 17:11:00,
2013-12-06 12:17:00,31.8,28.0,30.08,SW,225,1.0,11.0,86,0.00,,,0.07,Rainwise IP-100,2013-12-06 17:17:00,
2013-12-06 12:22:00,32.2,29.0,30.07,South,180,0.0,4.0,88,0.00,,,0.07,Rainwise IP-100,2013-12-06 17:22:00,
2013-12-06 12:27:00,32.6,31.0,30.08,SW,225,2.0,7.0,88,0.00,,,0.07,Rainwise IP-100,2013-12-06 17:27:00,
2013-12-06 12:32:00,32.6,31.0,30.09,SSW,202,2.0,6.0,89,0.00,,,0.07,Rainwise IP-100,2013-12-06 17:32:00,
2013-12-06 12:37:00,32.7,31.0,30.09,West,270,1.0,4.0,89,0.00,,,0.07,Rainwise IP-100,2013-12-06 17:37:00,
2013-12-06 12:42:00,32.5,31.0,30.08,WNW,292,2.0,6.0,89,0.00,,,0.07,Rainwise IP-100,2013-12-06 17:42:00,
2013-12-06 12:47:00,32.3,29.0,30.07,WSW,247,4.0,6.0,90,0.00,,,0.07,Rainwise IP-100,2013-12-06 17:47:00,
2013-12-06 12:52:00,32.0,29.0,30.07,WNW,292,1.0,4.0,89,0.00,,,0.07,Rainwise IP-100,2013-12-06 17:52:00,
2013-12-06 12:57:00,31.9,29.0,30.07,WNW,292,0.0,4.0,91,0.00,,,0.07,Rainwise IP-100,2013-12-06 17:57:00,
2013-12-06 13:02:00,31.8,31.0,30.07,SW,225,2.0,9.0,92,0.00,,,0.07,Rainwise IP-100,2013-12-06 18:02:00,
2013-12-06 13:08:00,31.5,29.0,30.07,SW,225,4.0,11.0,91,0.00,,,0.07,Rainwise IP-100,2013-12-06 18:08:00,
2013-12-06 13:13:00,31.5,29.0,30.07,SSW,202,2.0,10.0,91,0.00,,,0.07,Rainwise IP-100,2013-12-06 18:13:00,
2013-12-06 13:19:00,31.3,29.0,30.07,WSW,247,2.0,7.0,92,0.00,,,0.07,Rainwise IP-100,2013-12-06 18:19:00,
2013-12-06 13:24:00,31.3,29.0,30.08,WNW,292,0.0,5.0,92,0.00,,,0.07,Rainwise IP-100,2013-12-06 18:24:00,
2013-12-06 13:29:00,31.2,28.0,30.07,WSW,247,2.0,6.0,91,0.00,,,0.07,Rainwise IP-100,2013-12-06 18:29:00,
2013-12-06 13:34:00,30.9,28.0,30.07,NW,315,3.0,3.0,90,0.00,,,0.07,Rainwise IP-100,2013-12-06 18:34:00,
2013-12-06 13:39:00,30.9,28.0,30.07,NNE,22,2.0,6.0,90,0.00,,,0.07,Rainwise IP-100,2013-12-06 18:39:00,
2013-12-06 13:44:00,30.9,28.0,30.07,North,360,2.0,7.0,90,0.00,,,0.07,Rainwise IP-100,2013-12-06 18:44:00,
2013-12-06 13:49:00,30.9,28.0,30.07,SE,135,1.0,4.0,91,0.00,,,0.07,Rainwise IP-100,2013-12-06 18:49:00,
2013-12-06 13:54:00,30.9,28.0,30.08,North,360,0.0,7.0,90,0.00,,,0.07,Rainwise IP-100,2013-12-06 18:54:00,
2013-12-06 13:59:00,30.9,28.0,30.07,SW,225,1.0,5.0,90,0.00,,,0.07,Rainwise IP-100,2013-12-06 18:59:00,
2013-12-06 14:04:00,31.3,28.0,30.07,West,270,0.0,4.0,89,0.00,,,0.07,Rainwise IP-100,2013-12-06 19:04:00,
2013-12-06 14:09:00,31.4,28.0,30.07,South,180,4.0,7.0,87,0.00,,,0.07,Rainwise IP-100,2013-12-06 19:09:00,
2013-12-06 14:14:00,31.2,28.0,30.07,SW,225,2.0,7.0,88,0.00,,,0.07,Rainwise IP-100,2013-12-06 19:14:00,
2013-12-06 14:20:00,30.9,28.0,30.08,SSE,157,1.0,9.0,88,0.00,,,0.07,Rainwise IP-100,2013-12-06 19:20:00,
2013-12-06 14:25:00,30.8,28.0,30.08,South,180,0.0,5.0,90,0.00,,,0.07,Rainwise IP-100,2013-12-06 19:25:00,
2013-12-06 14:30:00,30.7,28.0,30.08,NNE,22,0.0,7.0,87,0.00,,,0.07,Rainwise IP-100,2013-12-06 19:30:00,
2013-12-06 14:35:00,30.6,28.0,30.09,ESE,112,1.0,7.0,88,0.00,,,0.07,Rainwise IP-100,2013-12-06 19:35:00,
2013-12-06 14:40:00,30.5,28.0,30.07,SE,135,1.0,5.0,87,0.00,,,0.07,Rainwise IP-100,2013-12-06 19:40:00,
2013-12-06 14:45:00,30.4,28.0,30.08,WNW,292,2.0,5.0,88,0.00,,,0.07,Rainwise IP-100,2013-12-06 19:45:00,
2013-12-06 14:50:00,30.3,28.0,30.08,SW,225,1.0,2.0,87,0.00,,,0.07,Rainwise IP-100,2013-12-06 19:50:00,
2013-12-06 14:55:00,30.1,28.0,30.07,South,180,4.0,6.0,87,0.00,,,0.07,Rainwise IP-100,2013-12-06 19:55:00,
2013-12-06 15:00:00,30.1,28.0,30.07,NNW,337,4.0,7.0,88,0.00,,,0.07,Rainwise IP-100,2013-12-06 20:00:00,
2013-12-06 15:05:00,30.1,28.0,30.07,SSW,202,0.0,4.0,86,0.00,,,0.07,Rainwise IP-100,2013-12-06 20:05:00,
2013-12-06 15:10:00,30.0,28.0,30.08,SW,225,2.0,3.0,87,0.00,,,0.07,Rainwise IP-100,2013-12-06 20:10:00,
2013-12-06 15:15:00,29.8,28.0,30.07,ESE,112,2.0,5.0,87,0.00,,,0.07,Rainwise IP-100,2013-12-06 20:15:00,
2013-12-06 15:21:00,29.6,28.0,30.08,ENE,67,0.0,2.0,88,0.00,,,0.07,Rainwise IP-100,2013-12-06 20:21:00,
2013-12-06 15:26:00,29.5,28.0,30.09,West,270,3.0,3.0,88,0.00,,,0.07,Rainwise IP-100,2013-12-06 20:26:00,
2013-12-06 15:31:00,29.5,28.0,30.08,SW,225,6.0,6.0,87,0.00,,,0.07,Rainwise IP-100,2013-12-06 20:31:00,
2013-12-06 15:36:00,29.3,26.0,30.07,NW,315,2.0,6.0,88,0.00,,,0.07,Rainwise IP-100,2013-12-06 20:36:00,
2013-12-06 15:41:00,29.1,26.0,30.07,West,270,1.0,4.0,90,0.00,,,0.07,Rainwise IP-100,2013-12-06 20:41:00,
2013-12-06 15:46:00,28.9,26.0,30.07,South,180,2.0,2.0,89,0.00,,,0.07,Rainwise IP-100,2013-12-06 20:46:00,
2013-12-06 15:51:00,28.9,26.0,30.07,NW,315,1.0,3.0,90,0.00,,,0.07,Rainwise IP-100,2013-12-06 20:51:00,
2013-12-06 15:56:00,28.8,26.0,30.07,West,270,0.0,4.0,89,0.00,,,0.07,Rainwise IP-100,2013-12-06 20:56:00,
2013-12-06 16:01:00,28.8,26.0,30.08,West,270,0.0,2.0,90,0.00,,,0.07,Rainwise IP-100,2013-12-06 21:01:00,
2013-12-06 16:06:00,28.7,26.0,30.07,West,270,1.0,5.0,90,0.00,,,0.07,Rainwise IP-100,2013-12-06 21:06:00,
2013-12-06 16:11:00,28.6,26.0,30.09,South,180,2.0,4.0,90,0.00,,,0.07,Rainwise IP-100,2013-12-06 21:11:00,
2013-12-06 16:16:00,28.5,26.0,30.09,SW,225,1.0,7.0,90,0.00,,,0.07,Rainwise IP-100,2013-12-06 21:16:00,
2013-12-06 16:22:00,28.4,26.0,30.09,North,360,1.0,4.0,90,0.00,,,0.07,Rainwise IP-100,2013-12-06 21:22:00,
2013-12-06 16:27:00,28.3,26.0,30.08,North,360,1.0,4.0,90,0.00,,,0.07,Rainwise IP-100,2013-12-06 21:27:00,
2013-12-06 16:32:00,28.1,26.0,30.08,SW,225,2.0,4.0,91,0.00,,,0.07,Rainwise IP-100,2013-12-06 21:32:00,
2013-12-06 16:37:00,28.0,26.0,30.08,SW,225,0.0,4.0,91,0.00,,,0.07,Rainwise IP-100,2013-12-06 21:37:00,
2013-12-06 16:42:00,27.9,26.0,30.09,West,270,0.0,4.0,92,0.00,,,0.07,Rainwise IP-100,2013-12-06 21:42:00,
2013-12-06 16:47:00,27.9,26.0,30.09,SW,225,2.0,2.0,93,0.00,,,0.07,Rainwise IP-100,2013-12-06 21:47:00,
2013-12-06 16:52:00,27.9,26.0,30.09,SSW,202,1.0,2.0,93,0.00,,,0.07,Rainwise IP-100,2013-12-06 21:52:00,
2013-12-06 16:57:00,27.9,26.0,30.09,SSW,202,0.0,2.0,94,0.00,,,0.07,Rainwise IP-100,2013-12-06 21:57:00,
2013-12-06 17:02:00,27.8,26.0,30.09,SSW,202,0.0,0.0,94,0.00,,,0.07,Rainwise IP-100,2013-12-06 22:02:00,
2013-12-06 17:07:00,27.8,26.0,30.09,SSW,202,0.0,0.0,94,0.00,,,0.07,Rainwise IP-100,2013-12-06 22:07:00,
2013-12-06 17:12:00,27.7,26.0,30.09,SE,135,1.0,1.0,94,0.00,,,0.07,Rainwise IP-100,2013-12-06 22:12:00,
2013-12-06 17:17:00,27.8,26.0,30.10,WSW,247,1.0,2.0,93,0.00,,,0.07,Rainwise IP-100,2013-12-06 22:17:00,
2013-12-06 17:23:00,27.9,26.0,30.11,WSW,247,0.0,4.0,93,0.00,,,0.07,Rainwise IP-100,2013-12-06 22:23:00,
2013-12-06 17:28:00,27.9,26.0,30.10,SW,225,2.0,3.0,92,0.00,,,0.07,Rainwise IP-100,2013-12-06 22:28:00,
2013-12-06 17:33:00,27.9,26.0,30.11,SSW,202,2.0,3.0,92,0.00,,,0.07,Rainwise IP-100,2013-12-06 22:33:00,
2013-12-06 17:38:00,27.9,26.0,30.11,West,270,4.0,4.0,92,0.00,,,0.07,Rainwise IP-100,2013-12-06 22:38:00,
2013-12-06 17:43:00,27.8,26.0,30.11,SW,225,1.0,4.0,92,0.00,,,0.07,Rainwise IP-100,2013-12-06 22:43:00,
2013-12-06 17:48:00,27.9,26.0,30.11,South,180,2.0,6.0,91,0.00,,,0.07,Rainwise IP-100,2013-12-06 22:48:00,
2013-12-06 17:53:00,27.8,26.0,30.11,South,180,1.0,4.0,91,0.00,,,0.07,Rainwise IP-100,2013-12-06 22:53:00,
2013-12-06 17:58:00,27.7,26.0,30.10,West,270,2.0,6.0,92,0.00,,,0.07,Rainwise IP-100,2013-12-06 22:58:00,
2013-12-06 18:03:00,27.7,26.0,30.10,West,270,1.0,4.0,93,0.00,,,0.07,Rainwise IP-100,2013-12-06 23:03:00,
2013-12-06 18:08:00,27.6,26.0,30.10,SW,225,2.0,4.0,94,0.00,,,0.07,Rainwise IP-100,2013-12-06 23:08:00,
2013-12-06 18:13:00,27.6,26.0,30.11,WSW,247,1.0,5.0,92,0.00,,,0.07,Rainwise IP-100,2013-12-06 23:13:00,
2013-12-06 18:18:00,27.6,26.0,30.11,West,270,4.0,4.0,92,0.00,,,0.07,Rainwise IP-100,2013-12-06 23:18:00,
2013-12-06 18:24:00,27.6,26.0,30.11,West,270,2.0,7.0,91,0.00,,,0.07,Rainwise IP-100,2013-12-06 23:24:00,
2013-12-06 18:29:00,27.5,26.0,30.11,SW,225,0.0,4.0,92,0.00,,,0.07,Rainwise IP-100,2013-12-06 23:29:00,
2013-12-06 18:34:00,27.5,26.0,30.11,South,180,1.0,2.0,92,0.00,,,0.07,Rainwise IP-100,2013-12-06 23:34:00,
2013-12-06 18:39:00,27.5,26.0,30.11,South,180,2.0,4.0,93,0.00,,,0.07,Rainwise IP-100,2013-12-06 23:39:00,
2013-12-06 18:44:00,27.4,26.0,30.11,WSW,247,2.0,2.0,92,0.00,,,0.07,Rainwise IP-100,2013-12-06 23:44:00,
2013-12-06 18:49:00,27.5,26.0,30.11,SW,225,1.0,5.0,91,0.00,,,0.07,Rainwise IP-100,2013-12-06 23:49:00,
2013-12-06 18:54:00,27.3,26.0,30.11,South,180,0.0,3.0,91,0.00,,,0.07,Rainwise IP-100,2013-12-06 23:54:00,
2013-12-06 18:59:00,27.2,26.0,30.11,South,180,1.0,2.0,92,0.00,,,0.07,Rainwise IP-100,2013-12-06 23:59:00,
2013-12-06 19:04:00,27.2,26.0,30.11,SSW,202,1.0,2.0,91,0.00,,,0.07,Rainwise IP-100,2013-12-07 00:04:00,
2013-12-06 19:09:00,27.1,26.0,30.11,SSE,157,2.0,2.0,91,0.00,,,0.07,Rainwise IP-100,2013-12-07 00:09:00,
2013-12-06 19:14:00,27.1,26.0,30.12,West,270,1.0,4.0,91,0.00,,,0.07,Rainwise IP-100,2013-12-07 00:14:00,
2013-12-06 19:19:00,27.2,26.0,30.12,NW,315,0.0,5.0,91,0.00,,,0.07,Rainwise IP-100,2013-12-07 00:19:00,
2013-12-06 19:25:00,27.2,26.0,30.12,SW,225,0.0,2.0,92,0.00,,,0.07,Rainwise IP-100,2013-12-07 00:25:00,
2013-12-06 19:30:00,27.1,26.0,30.11,WSW,247,0.0,2.0,91,0.00,,,0.07,Rainwise IP-100,2013-12-07 00:30:00,
2013-12-06 19:35:00,27.1,26.0,30.11,SSW,202,2.0,4.0,91,0.00,,,0.07,Rainwise IP-100,2013-12-07 00:35:00,
2013-12-06 19:40:00,27.1,26.0,30.11,SE,135,2.0,2.0,92,0.00,,,0.07,Rainwise IP-100,2013-12-07 00:40:00,
2013-12-06 19:45:00,27.0,26.0,30.11,SSW,202,2.0,4.0,91,0.00,,,0.07,Rainwise IP-100,2013-12-07 00:45:00,
2013-12-06 19:50:00,26.9,26.0,30.11,WSW,247,2.0,4.0,92,0.00,,,0.07,Rainwise IP-100,2013-12-07 00:50:00,
2013-12-06 19:55:00,26.9,26.0,30.13,SW,225,1.0,4.0,92,0.00,,,0.07,Rainwise IP-100,2013-12-07 00:55:00,
2013-12-06 20:00:00,26.9,26.0,30.12,South,180,2.0,3.0,92,0.00,,,0.07,Rainwise IP-100,2013-12-07 01:00:00,
2013-12-06 20:05:00,26.9,26.0,30.11,West,270,2.0,5.0,91,0.00,,,0.07,Rainwise IP-100,2013-12-07 01:05:00,
2013-12-06 20:10:00,26.9,26.0,30.12,SW,225,0.0,4.0,92,0.00,,,0.07,Rainwise IP-100,2013-12-07 01:10:00,
2013-12-06 20:15:00,26.9,26.0,30.12,SW,225,2.0,5.0,91,0.00,,,0.07,Rainwise IP-100,2013-12-07 01:15:00,
2013-12-06 20:20:00,26.9,26.0,30.14,SW,225,4.0,6.0,91,0.00,,,0.07,Rainwise IP-100,2013-12-07 01:20:00,
2013-12-06 20:26:00,26.9,26.0,30.14,SW,225,2.0,7.0,91,0.00,,,0.07,Rainwise IP-100,2013-12-07 01:26:00,
2013-12-06 20:31:00,26.9,26.0,30.14,SSW,202,0.0,3.0,91,0.00,,,0.07,Rainwise IP-100,2013-12-07 01:31:00,
2013-12-06 20:36:00,26.9,26.0,30.13,WSW,247,2.0,3.0,91,0.00,,,0.07,Rainwise IP-100,2013-12-07 01:36:00,
2013-12-06 20:41:00,26.9,26.0,30.13,SW,225,0.0,5.0,90,0.00,,,0.07,Rainwise IP-100,2013-12-07 01:41:00,
2013-12-06 20:46:00,26.9,26.0,30.13,SW,225,0.0,2.0,91,0.00,,,0.07,Rainwise IP-100,2013-12-07 01:46:00,
2013-12-06 20:51:00,26.9,26.0,30.13,SW,225,2.0,4.0,91,0.00,,,0.07,Rainwise IP-100,2013-12-07 01:51:00,
2013-12-06 20:56:00,26.9,26.0,30.13,SW,225,2.0,5.0,90,0.00,,,0.07,Rainwise IP-100,2013-12-07 01:56:00,
2013-12-06 21:01:00,26.9,26.0,30.13,West,270,2.0,4.0,90,0.00,,,0.07,Rainwise IP-100,2013-12-07 02:01:00,
2013-12-06 21:06:00,26.8,26.0,30.13,SW,225,1.0,4.0,90,0.00,,,0.07,Rainwise IP-100,2013-12-07 02:06:00,
2013-12-06 21:11:00,26.8,26.0,30.13,SW,225,0.0,2.0,90,0.00,,,0.07,Rainwise IP-100,2013-12-07 02:11:00,
2013-12-06 21:16:00,26.7,26.0,30.13,SSE,157,0.0,2.0,90,0.00,,,0.07,Rainwise IP-100,2013-12-07 02:16:00,
2013-12-06 21:21:00,26.8,26.0,30.13,West,270,0.0,4.0,90,0.00,,,0.07,Rainwise IP-100,2013-12-07 02:21:00,
2013-12-06 21:27:00,26.8,24.0,30.13,SE,135,1.0,3.0,89,0.00,,,0.07,Rainwise IP-100,2013-12-07 02:27:00,
2013-12-06 21:32:00,26.7,24.0,30.13,SW,225,6.0,7.0,89,0.00,,,0.07,Rainwise IP-100,2013-12-07 02:32:00,
2013-12-06 21:37:00,26.7,24.0,30.12,SW,225,0.0,7.0,89,0.00,,,0.07,Rainwise IP-100,2013-12-07 02:37:00,
2013-12-06 21:42:00,26.7,24.0,30.12,SW,225,2.0,2.0,89,0.00,,,0.07,Rainwise IP-100,2013-12-07 02:42:00,
2013-12-06 21:47:00,26.7,26.0,30.13,South,180,2.0,2.0,90,0.00,,,0.07,Rainwise IP-100,2013-12-07 02:47:00,
2013-12-06 21:52:00,26.7,26.0,30.13,SW,225,0.0,6.0,90,0.00,,,0.07,Rainwise IP-100,2013-12-07 02:52:00,
2013-12-06 21:57:00,26.7,26.0,30.14,South,180,1.0,2.0,90,0.00,,,0.07,Rainwise IP-100,2013-12-07 02:57:00,
2013-12-06 22:02:00,26.6,26.0,30.14,SSW,202,1.0,2.0,90,0.00,,,0.07,Rainwise IP-100,2013-12-07 03:02:00,
2013-12-06 22:07:00,26.6,26.0,30.14,SE,135,2.0,2.0,90,0.00,,,0.07,Rainwise IP-100,2013-12-07 03:07:00,
2013-12-06 22:12:00,26.6,26.0,30.13,NW,315,2.0,3.0,90,0.00,,,0.07,Rainwise IP-100,2013-12-07 03:12:00,
2013-12-06 22:17:00,26.6,26.0,30.14,NW,315,2.0,4.0,90,0.00,,,0.07,Rainwise IP-100,2013-12-07 03:17:00,
2013-12-06 22:22:00,26.6,26.0,30.14,WSW,247,1.0,2.0,90,0.00,,,0.07,Rainwise IP-100,2013-12-07 03:22:00,
2013-12-06 22:28:00,26.6,26.0,30.15,NW,315,1.0,6.0,90,0.00,,,0.07,Rainwise IP-100,2013-12-07 03:28:00,
2013-12-06 22:33:00,26.5,26.0,30.15,West,270,0.0,4.0,90,0.00,,,0.07,Rainwise IP-100,2013-12-07 03:33:00,
2013-12-06 22:38:00,26.5,26.0,30.14,NW,315,1.0,5.0,91,0.00,,,0.07,Rainwise IP-100,2013-12-07 03:38:00,
2013-12-06 22:43:00,26.5,26.0,30.14,NW,315,1.0,2.0,91,0.00,,,0.07,Rainwise IP-100,2013-12-07 03:43:00,
2013-12-06 22:48:00,26.4,24.0,30.13,WNW,292,1.0,2.0,92,0.00,,,0.07,Rainwise IP-100,2013-12-07 03:48:00,
2013-12-06 22:53:00,26.3,24.0,30.13,North,360,1.0,4.0,92,0.00,,,0.07,Rainwise IP-100,2013-12-07 03:53:00,
2013-12-06 22:58:00,26.4,24.0,30.13,SW,225,3.0,6.0,90,0.00,,,0.07,Rainwise IP-100,2013-12-07 03:58:00,
2013-12-06 23:03:00,26.4,24.0,30.15,NW,315,4.0,4.0,90,0.00,,,0.07,Rainwise IP-100,2013-12-07 04:03:00,
2013-12-06 23:08:00,26.5,26.0,30.15,West,270,0.0,6.0,90,0.00,,,0.07,Rainwise IP-100,2013-12-07 04:08:00,
2013-12-06 23:13:00,26.5,26.0,30.14,SW,225,1.0,5.0,90,0.00,,,0.07,Rainwise IP-100,2013-12-07 04:13:00,
2013-12-06 23:18:00,26.5,26.0,30.14,SW,225,1.0,2.0,90,0.00,,,0.07,Rainwise IP-100,2013-12-07 04:18:00,
2013-12-06 23:23:00,26.4,24.0,30.14,South,180,2.0,2.0,90,0.00,,,0.07,Rainwise IP-100,2013-12-07 04:23:00,
2013-12-06 23:29:00,26.3,24.0,30.15,West,270,3.0,3.0,90,0.00,,,0.07,Rainwise IP-100,2013-12-07 04:29:00,
2013-12-06 23:34:00,26.3,24.0,30.15,SW,225,1.0,4.0,90,0.00,,,0.07,Rainwise IP-100,2013-12-07 04:34:00,
2013-12-06 23:39:00,26.3,24.0,30.14,NNW,337,3.0,4.0,90,0.00,,,0.07,Rainwise IP-100,2013-12-07 04:39:00,
2013-12-06 23:44:00,26.2,24.0,30.14,West,270,1.0,3.0,90,0.00,,,0.07,Rainwise IP-100,2013-12-07 04:44:00,
2013-12-06 23:49:00,26.1,24.0,30.13,West,270,0.0,2.0,90,0.00,,,0.07,Rainwise IP-100,2013-12-07 04:49:00,
2013-12-06 23:54:00,26.1,24.0,30.13,WSW,247,1.0,2.0,90,0.00,,,0.07,Rainwise IP-100,2013-12-07 04:54:00,
2013-12-06 23:59:00,25.9,24.0,30.14,West,270,0.0,2.0,91,0.00,,,0.07,Rainwise IP-100,2013-12-07 04:59:00,